Weather Service Report


508 
ASUS46 KLOX 300013
RWRCA 

SOUTHERN CALIFORNIA WEATHER ROUNDUP
NATIONAL WEATHER SERVICE OXNARD CALIFORNIA
500 PM PDT FRI APR 29 2016

NOTE: "FAIR" INDICATES FEW OR NO CLOUDS BELOW 12,000 FEET WITH NO 
SIGNIFICANT WEATHER AND/OR OBSTRUCTIONS TO VISIBILITY.

  -  STATIONS PRECEEDED BY AN ASTERISK (*) ARE NOT NWS OR FAA 
     STATIONS AND ARE NOT SUBJECT TO NWS AND FAA QUALITY CONTROL.

CAZ041-042-087-300100-
LA AND ORANGE COUNTY COASTAL AREAS

  
CITY           SKY/WX    TMP DP  RH WIND       PRES   REMARKS
L.A. DOWNTOWN  MOSUNNY   64  51  62 W5        29.94F                  
L.A. AIRPORT   PTSUNNY   62  53  72 W15       29.95F                  
LONG BEACH     MOSUNNY   67  50  54 SW10      29.94F                  

CITY           SKY/WX    TMP DP  RH WIND       PRES   REMARKS
AVALON           N/A     64 N/A N/A MISG        N/A                   
FULLERTON      MOSUNNY   67  50  54 S10       29.92F                  
*GETTY CENTER    N/A    N/A N/A N/A SW13G20     N/A                   
HAWTHORNE      PTSUNNY   63  51  65 W12G20    29.95F                  
*LEO CARRILLO    N/A     62  51  67 W12         N/A                   
*LOS ALAMITOS  FAIR      66  52  61 SW15      29.93F                  
*REDONDO BEACH   N/A     62  53  71 W3        29.95F                  
SANTA ANA      MOSUNNY   65  50  58 SW9       29.94F                  
STA MONICA APT MOSUNNY   61  52  72 SW12      29.95F                  
*STA MON PIER    N/A     57  53  87 W14       29.88F                  
TORRANCE       MOSUNNY   64  55  72 W14       29.96                   
*UCLA            N/A     59  50  72 SW14      29.91F                  

$$

CAZ547-548-048-300100-
LA COUNTY VALLEYS AND INLAND EMPIRE

  
CITY           SKY/WX    TMP DP  RH WIND       PRES   REMARKS
BURBANK        SUNNY     66  49  54 S9        29.92F                  
VAN NUYS       SUNNY     69  48  47 S14       29.91F                  

CITY           SKY/WX    TMP DP  RH WIND       PRES   REMARKS
CORONA AIRPORT CLEAR     70  50  49 W12       29.92F                  
*CHATSWORTH      N/A     69  50  50 NW12      29.92F                  
CHINO          MOSUNNY   72  48  42 SW16      29.92F                  
*CLAREMONT       N/A     68  49  51 SW10        N/A                   
MARCH AFB      SUNNY     69  49  50 NW10G17   29.91F                  
*NORTHRIDGE      N/A     68  46  45 E3G12       N/A                   
ONTARIO        MOSUNNY   69  48  47 SW14      29.91F                  
*PASADENA        N/A     68  55  64 E7          N/A                   
POMONA         MOSUNNY   66  48  52 W15       29.95F                  
RIVERSIDE      SUNNY     70  48  45 W12G18    29.91F                  
SAN BERNARDINO MOSUNNY   72  45  37 W6        29.91F                  
*SAN GABRIEL     N/A     65  53  64 S9        30.00S                  
*SAN RAFAEL HI   N/A     67  48  51 NW8         N/A                   
*SAUGUS          N/A     69  46  43 S15G28      N/A                   
*WHITEMAN AP   NOT AVBL                                               
*WHITTIER HILL   N/A     65  50  59 SW13        N/A                   
*WOODLAND HILL   N/A     70  48  46 S5G10       N/A                   

$$

CAZ054-055-300100-
LA AND SAN BERNARDINO COUNTY MOUNTAINS

  
CITY           SKY/WX    TMP DP  RH WIND       PRES   REMARKS
*ACTON           N/A     72  40  31 W8          N/A                   
*BIG BEAR AIRP PTCLDY    52  32  46 SW10G16   30.00F                  
*BIG PINES       N/A     57  30  36 W2          N/A                   
*CHILAO          N/A     59  39  47 SW8         N/A                   
SANDBERG       SUNNY     66  26  22 N20G28    29.99F                  
*WARM SPRINGS    N/A     67  50  53 CALM        N/A                   

$$

CAZ028-029-059-060-099-300100-
ANTELOPE VALLEY AND SURROUNDING AREAS

  
CITY           SKY/WX    TMP DP  RH WIND       PRES   REMARKS
LANCASTER      SUNNY     74  30  19 W36G43    29.85F                  
PALMDALE       MOSUNNY   69  42  37 SW22      29.89F                  
*POPPY PARK      N/A     70  29  22 W25G48      N/A                   

CITY           SKY/WX    TMP DP  RH WIND       PRES   REMARKS
29 PALMS       MOSUNNY   77  31  18 SW14      29.85F                  
BARSTOW/DAGGET SUNNY     79  29  16 W26G35    29.78F                  
BISHOP         PTSUNNY   68  28  22 W20G28    29.80F                  
CHINA LAKE     MOSUNNY   79  33  19 W14G22    29.75F                  
EDWARDS AFB    MOSUNNY   74  31  20 W37       29.78F                  
MOJAVE         MOSUNNY   72  37  28 W24G33    29.89F                  
NEEDLES        MOSUNNY   84  32  15 W9        29.73F                  
VICTORVILLE    MOSUNNY   72  32  23 W18G30    29.88F                  

$$

CAZ039-040-300100-
VENTURA AND SANTA BARBARA COUNTY COAST

  
CITY           SKY/WX    TMP DP  RH WIND       PRES   REMARKS
CAMARILLO      MOSUNNY   63  48  58 SW10      29.94F                  
NWS OXNARD       N/A     64  50  61 SW3       29.94F                  
OXNARD AIRPORT PTSUNNY   61  51  70 SW12      29.95F                  
*POINT MUGU    MOSUNNY   61  51  70 W12       29.96F                  
SBA APT/GOLETA SUNNY     63  51  65 SE7       29.92F                  
*SANTA BARBARA   N/A     69  49  49 CALM      30.01F                  
*VENTURA         N/A     61  52  71 SW3       29.92F                  

$$

CAZ044-045-300100-
VENTURA COUNTY VALLEYS

  
CITY           SKY/WX    TMP DP  RH WIND       PRES   REMARKS
*SIMI VALLEY     N/A     65  51  61 W3        29.89F                  
*WESTLAKE VILL   N/A     64  50  61 NW2       29.92F                  
*OJAI            N/A     66  52  59 SW3       29.87F                  
*FILLMORE        N/A     66  52  61 W5        29.83F                  

$$

CAZ053-300100-
VENTURA COUNTY MOUNTAINS

  
CITY           SKY/WX    TMP DP  RH WIND       PRES   REMARKS
*LOCKWOOD VLY    N/A     61  30  31 MISG        N/A                   
*ROSE VALLEY     N/A     63  52  67 MISG        N/A                   

$$

CAZ034-035-036-300100-
CENTRAL COAST AND SANTA YNEZ VALLEY

  
CITY           SKY/WX    TMP DP  RH WIND       PRES   REMARKS
SAN LUIS OBISP MOSUNNY   60  48  64 NW20      29.99F                  
SANTA MARIA    MOSUNNY   61  49  64 W21       30.01F                  

CITY           SKY/WX    TMP DP  RH WIND       PRES   REMARKS
*CAL POLY SLO    N/A     61  50  67 W7          N/A                   
*LOMPOC        CLOUDY    57  48  72 NW18G25   30.02F                  
*PISMO BEACH     N/A     56  51  83 W17       30.00F                  
*SANTA YNEZ    FAIR      63  45  51 W18       29.98S                  

$$

CAZ037-038-051-300100-
SAN LUIS OBISPO COUNTY INTERIOR AND CUYAMA VALLEY

  
CITY           SKY/WX    TMP DP  RH WIND       PRES   REMARKS
*CUYAMA          N/A     71  39  31 W14       29.86F                  
PASO ROBLES    SUNNY     68  47  46 S16       29.91F                  

$$

CAZ032-033-061-300100-
SOUTHERN DESERTS

  
CITY           SKY/WX    TMP DP  RH WIND       PRES   REMARKS
BLYTHE         MOSUNNY   87  35  15 W15G22    29.74F                  
IMPERIAL       SUNNY     88  36  15 W10G20    29.72F                  
PALM SPRINGS   MOSUNNY   84  42  22 NW18G25   29.77F                  
THERMAL        SUNNY     88  31  13 W7        29.72F                  

$$

ELSEWHERE ACROSS THE WESTERN UNITED STATES AND MEXICO

  
CITY           SKY/WX    TMP DP  RH WIND       PRES   REMARKS
DEATH VALLEY,    N/A     90  34  14 SE3         N/A                   
DENVER, CO     LGT SNOW  33  29  85 N8        29.91S VSB 1   WCI  26  
GRAND CANYON,  PTSUNNY   52  32  46 SW12G23   29.90R                  
HONOLULU, HI   MOSUNNY   81  66  61 SE16G24   30.06F                  
KAHULUI, MAUI  MOSUNNY   88  64  45 NE18G26   30.04F                  
LAKE TAHOE, CA MOSUNNY   50  29  44 SW15G21   29.95F                  
LAS VEGAS, NV  PTSUNNY   76  35  22 E13G18    29.70F                  
MAMMOTH LAKES, PTSUNNY   52  26  35 W15G23    29.96F                  
MEXICO CITY, M CLOUDY    79  34  19 S20       30.13R                  
PHOENIX, AZ    PTSUNNY   81  36  19 W15       29.76F                  
PORTLAND, OR   PTSUNNY   58  49  72 SW7       30.15S                  
RENO, NV       PTSUNNY   66  25  21 NW14G28   29.86R                  
SALT LAKE CITY PTSUNNY   57  35  43 W6        29.82S                  
SAN DIEGO, CA  PTSUNNY   65  51  60 NW9       29.98F                  
SAN FRANCISCO, PTSUNNY   57  46  66 W39G47    29.97F                  
SAN JOSE, CA   PTSUNNY   68  44  42 W18       29.98F                  
SEATTLE, WA    MOSUNNY   58  43  57 CALM      30.15F                  
TIJUANA, MEX   MOSUNNY   63  48  59 SW10      29.99F                  

$$
  
STATION/POSITION TIME  TEMP    WIND        PRES    VSBY  WAVE
                       AIR SEA DIR/SP/G                  HT/PER
                 (UTC) (F)     (DEG/KT/KT) (MB)    (MI)  (FT/S)
POINT ARGUELLO B NOT AVBL
WEST SANTA BARBA 2350   53 53  320/ 17/ 21 1015.3F        10/12
POINT CONCEPTION NOT AVBL
EAST SANTA BARBA 2300   56 56  270/ 19/ 25 1014.9F
SANTA MONICA BAY 2350   58 61  280/  8/  8 1014.6F         4/16

Return to Home page


Western Regional Climate Center, wrcc@dri.edu